Hayward, CA

6:24 PM PST on February 19, 2018 (GMT -0800)
Hayward Executive

Weather History for KHWD - September, 2013

Change the Weather History Date:

Tuesday, September 3, 2013

  Actual Average Record
Temperature  
Mean Temperature 67 °F 67 °F  
Max Temperature 74 °F 77 °F 95 °F (2017)
Min Temperature 59 °F 58 °F 54 °F (2012)
Degree Days  
Heating Degree Days 0    
Month to date heating degree days 0  
Since 1 July heating degree days 60  
Cooling Degree Days 2    
Month to date cooling degree days 8  
Year to date cooling degree days 204  
Growing Degree Days 16 (Base 50)    
Moisture  
Dew Point 59 °F    
Average Humidity 75    
Maximum Humidity 97    
Minimum Humidity 53    
Precipitation  
Precipitation 0.00 in - 0.00 in (2018)
Month to date precipitation 0.00  
Year to date precipitation 1.49  
Since 1 July precipitation T  
Sea Level Pressure  
Sea Level Pressure 29.99 in    
Wind  
Wind Speed 8 mph (West)    
Max Wind Speed 21 mph    
Max Gust Speed 25 mph    
Visibility 10 miles    
Events      
T = Trace of Precipitation, MM = Missing Value Source: NWS Daily Summary

Daily Weather History Graph

Daily Weather History Graph

Search for Another Location

Airport or City:

Trip Planner

Search our weather history database for the weather conditions in past years. The results will help you decide how hot, cold, wet, or windy it might be!

Date:

Astronomy

Sep. 03, 2013 Rise Set
Actual Time 6:40 AM PDT 7:34 PM PDT
Civil Twilight 6:13 AM PDT 8:00 PM PDT
Nautical Twilight 5:42 AM PDT 8:32 PM PDT
Astronomical Twilight 5:09 AM PDT 9:04 PM PDT
Moon 5:00 AM PDT (9/3) 6:24 PM PDT (9/3)
Length of Visible Light 13h 46m
Length of Day
12h 53m
Waning Crescent, 3% of the Moon is Illuminated
Sep 3
Waning Crescent
Sep 5
New
Sep 12
First Quarter
Sep 19
Full
Sep 26
Last Quarter

Hourly Weather History & Observations

Time (PDT) Temp. Dew Point Humidity Pressure Visibility Wind Dir Wind Speed Gust Speed Precip Events Conditions
12:54 AM 63.0 °F 61.0 °F 93% 29.98 in 10.0 mi Calm Calm - N/A   Overcast
1:03 AM 62.6 °F 60.8 °F 94% 29.95 in 10.0 mi Calm Calm - N/A   Overcast
1:54 AM 63.0 °F 60.1 °F 90% 29.98 in 10.0 mi Calm Calm - N/A   Mostly Cloudy
2:19 AM 62.6 °F 60.8 °F 94% 29.95 in 10.0 mi Calm Calm - N/A   Partly Cloudy
2:54 AM 63.0 °F 60.1 °F 90% 29.98 in 10.0 mi Calm Calm - N/A   Clear
3:54 AM 61.0 °F 57.9 °F 90% 29.98 in 10.0 mi West 3.5 mph - N/A   Clear
4:23 AM 60.8 °F 59.0 °F 94% 29.95 in 10.0 mi West 3.5 mph - N/A   Partly Cloudy
4:50 AM 60.8 °F 59.0 °F 94% 29.95 in 10.0 mi Calm Calm - N/A   Mostly Cloudy
4:54 AM 61.0 °F 59.0 °F 93% 29.98 in 10.0 mi Calm Calm - N/A   Mostly Cloudy
5:54 AM 60.1 °F 59.0 °F 96% 29.99 in 10.0 mi Calm Calm - N/A   Overcast
6:54 AM 60.1 °F 57.9 °F 93% 30.00 in 10.0 mi Calm Calm - N/A   Mostly Cloudy
7:41 AM 60.8 °F 59.0 °F 94% 29.98 in 10.0 mi Calm Calm - N/A   Scattered Clouds
7:54 AM 62.1 °F 59.0 °F 90% 30.01 in 10.0 mi Calm Calm - N/A   Mostly Cloudy
8:54 AM 63.0 °F 59.0 °F 87% 30.02 in 10.0 mi Variable 3.5 mph - N/A   Mostly Cloudy
9:13 AM 64.4 °F 59.0 °F 83% 30.00 in 10.0 mi WSW 4.6 mph - N/A   Scattered Clouds
9:54 AM 64.9 °F 57.9 °F 78% 30.04 in 10.0 mi Variable 3.5 mph - N/A   Clear
10:54 AM 66.9 °F 55.9 °F 68% 30.04 in 10.0 mi WSW 5.8 mph - N/A   Clear
11:54 AM 70.0 °F 55.9 °F 61% 30.04 in 10.0 mi West 6.9 mph - N/A   Clear
12:54 PM 73.0 °F 55.0 °F 53% 30.03 in 10.0 mi West 10.4 mph - N/A   Clear
1:54 PM 73.9 °F 57.9 °F 57% 30.02 in 10.0 mi West 13.8 mph 20.7 mph N/A   Clear
2:54 PM 73.0 °F 57.9 °F 59% 30.01 in 10.0 mi WNW 17.3 mph - N/A   Clear
3:54 PM 73.0 °F 59.0 °F 61% 30.00 in 10.0 mi WNW 17.3 mph - N/A   Clear
4:54 PM 72.0 °F 57.9 °F 61% 29.99 in 10.0 mi WNW 18.4 mph - N/A   Clear
5:54 PM 70.0 °F 59.0 °F 68% 29.99 in 10.0 mi WNW 16.1 mph - N/A   Clear
6:54 PM 68.0 °F 59.0 °F 73% 29.98 in 10.0 mi WNW 17.3 mph 24.2 mph N/A   Clear
7:54 PM 64.9 °F 60.1 °F 84% 29.98 in 10.0 mi West 11.5 mph - N/A   Clear
8:54 PM 64.0 °F 61.0 °F 90% 30.00 in 10.0 mi West 11.5 mph - N/A   Scattered Clouds
9:01 PM 64.4 °F 60.8 °F 88% 29.97 in 10.0 mi West 12.7 mph - N/A   Mostly Cloudy
9:33 PM 62.6 °F 60.8 °F 94% 29.98 in 10.0 mi WNW 13.8 mph - N/A   Scattered Clouds
9:54 PM 63.0 °F 60.1 °F 90% 30.01 in 10.0 mi West 11.5 mph - N/A   Scattered Clouds
10:30 PM 62.6 °F 60.8 °F 94% 29.98 in 10.0 mi WNW 11.5 mph - N/A   Mostly Cloudy
10:54 PM 63.0 °F 60.1 °F 90% 30.01 in 10.0 mi WNW 9.2 mph - N/A   Mostly Cloudy
11:09 PM 62.6 °F 60.8 °F 94% 29.98 in 10.0 mi WNW 9.2 mph - N/A   Overcast
11:54 PM 62.1 °F 59.0 °F 90% 30.01 in 10.0 mi WNW 6.9 mph - N/A   Scattered Clouds